Temperature
19 19 19 19 18 18 19 20 21 21 21 21 21 21 20 19 19 18 18 18 18 18 18 18 18 18 18 18 18 18 18 18 18 18 18 18 18 18 18 18 18 18 18 18 18 18 18 18 18
19 19 19 18 18 18 20 20 21 22 22 22 21 21 20 19 18 18 18 18 18 18 18 18 18 18 18 18 18 18 18 18 18 18 18 18 18 18 18 18 18 18 18 18 18 18 18 18 18
19 19 19 17 18 19 20 20 21 22 22 22 21 20 19 19 18 18 18 18 18 18 18 18 18 18 18 18 18 18 18 18 18 18 18 18 18 17 17 17 17 17 17 17 17 17 17 18 18
19 19 19 18 19 20 20 20 21 22 22 22 21 19 19 19 19 18 18 18 18 18 18 18 18 18 18 18 18 18 18 18 18 17 17 17 17 17 17 17 17 17 17 17 17 17 17 17 17
19 19 18 19 19 20 20 21 22 22 22 21 20 19 18 19 19 18 18 18 18 18 18 18 18 18 18 18 18 18 18 17 17 17 17 17 17 17 16 16 16 16 17 17 17 17 17 17 17
19 18 18 18 20 20 20 22 22 21 21 20 20 18 18 18 18 18 18 18 18 18 18 18 18 18 18 18 17 17 17 17 17 17 17 16 16 16 16 16 16 16 16 16 16 16 17 17 17
19 17 18 19 19 20 21 22 21 21 21 21 20 18 18 18 18 18 18 19 18 18 18 18 18 18 18 17 17 17 17 17 17 16 16 16 16 16 16 16 16 16 16 16 16 16 16 17 17
20 17 18 19 19 20 21 22 22 21 21 21 20 19 18 18 18 18 18 18 18 18 18 18 18 18 17 17 17 17 17 17 16 16 16 16 16 16 16 16 16 16 16 16 16 16 16 16 16
20 17 18 19 19 20 21 21 21 21 21 21 20 20 19 19 19 18 18 18 18 18 18 18 18 18 17 17 17 17 17 17 16 16 16 16 16 16 16 15 15 15 15 15 15 16 16 16 16
19 17 18 19 19 20 21 21 21 21 20 20 20 19 19 19 19 19 18 18 18 18 18 18 18 18 17 17 17 17 17 16 16 16 16 16 16 16 15 15 15 15 15 15 15 16 16 16 16
19 18 19 20 21 21 21 21 21 20 19 19 19 19 19 19 19 19 19 19 18 18 18 18 18 18 17 17 17 17 17 16 16 16 16 16 16 16 15 15 15 15 15 15 15 15 15 16 16
19 19 20 21 22 22 21 21 21 21 21 21 20 20 19 19 19 19 19 19 19 18 18 18 18 18 17 17 17 17 17 17 16 16 16 16 16 15 15 15 15 15 15 15 15 15 15 15 16
20 20 21 21 22 22 22 21 21 21 21 21 20 20 20 19 19 19 19 19 19 19 18 18 18 18 18 17 17 17 17 17 16 16 16 16 16 15 15 15 15 15 15 15 15 15 15 15 15
20 20 21 21 21 22 21 21 21 20 21 20 20 20 20 20 20 19 19 19 19 19 19 18 18 18 18 17 17 17 17 16 16 16 16 15 15 15 15 15 15 15 15 15 15 15 15 15 15
21 20 20 21 21 21 21 20 20 21 21 20 20 20 20 20 20 20 20 20 19 19 19 18 18 18 18 17 17 17 17 16 16 16 16 15 15 15 15 15 15 15 15 15 15 15 15 15 15
21 19 19 20 21 21 21 19 20 20 20 20 20 20 20 20 20 20 20 20 19 19 19 18 18 18 18 17 17 17 16 16 16 16 15 15 15 15 15 14 14 14 14 15 15 15 15 15 15
19 18 19 20 21 21 20 19 19 20 20 20 20 20 20 20 20 20 20 20 20 19 19 19 18 18 18 17 17 17 16 16 16 15 15 15 15 15 14 14 14 14 14 14 14 14 15 15 15
19 18 19 19 20 20 19 19 19 20 20 20 20 20 20 20 20 20 20 20 20 19 19 19 18 18 17 17 17 16 16 16 16 15 15 15 15 15 14 14 14 14 14 14 14 14 14 15 15
20 19 19 19 20 20 19 19 19 19 19 19 20 20 20 20 20 20 20 20 20 19 19 19 18 18 17 17 17 16 16 16 15 15 15 15 15 14 14 14 14 14 14 14 14 14 14 15 15
20 19 19 19 20 20 19 19 19 19 19 19 20 20 20 20 20 20 20 20 20 19 19 19 18 18 18 17 17 16 16 16 15 15 15 15 15 14 14 14 14 14 14 14 14 14 14 14 14
20 19 19 19 20 19 19 19 18 19 19 20 20 20 20 20 20 20 20 20 20 19 19 19 18 18 18 17 17 16 16 16 15 15 15 15 15 15 14 14 14 14 14 14 14 14 14 14 14
19 20 20 20 18 18 19 17 18 18 19 19 19 20 20 20 21 20 20 20 20 19 19 19 18 18 18 17 17 16 16 16 15 15 15 15 15 15 14 14 14 14 14 14 14 14 14 14 14
20 20 20 19 18 18 18 17 18 18 18 18 19 20 20 21 20 20 20 20 20 19 19 19 18 18 18 17 17 16 16 16 16 15 15 15 15 15 14 14 14 14 14 14 14 14 14 14 14
20 19 19 17 17 18 18 18 18 17 18 19 19 20 20 20 20 20 20 20 20 19 19 19 18 18 18 17 17 16 16 16 16 15 15 15 15 15 14 14 14 14 14 14 14 14 14 14 14
19 17 17 17 17 17 18 18 18 19 19 19 19 19 20 20 20 20 20 20 20 19 19 19 18 18 18 17 17 17 16 16 16 16 15 15 15 15 15 14 14 14 14 14 14 14 14 14 14
19 18 17 17 17 17 18 18 18 19 20 20 20 20 20 20 20 20 20 20 20 19 19 19 18 18 18 17 17 17 16 16 16 16 15 15 15 15 15 15 14 14 14 14 14 14 14 14 14
18 17 17 17 18 17 18 19 19 19 19 19 19 19 19 20 20 20 20 20 19 19 19 19 18 18 18 17 17 17 16 16 16 16 15 15 15 15 15 15 15 15 14 14 14 14 14 14 14
19 18 16 17 18 18 18 18 18 18 18 18 18 18 19 19 20 20 20 19 19 19 19 18 18 18 17 17 17 17 16 16 16 16 16 15 15 15 15 15 15 15 15 14 14 14 14 14 14
20 19 18 16 17 17 17 18 19 18 18 18 18 19 19 19 19 19 19 19 19 19 18 18 18 18 17 17 17 17 16 16 16 16 16 15 15 15 15 15 15 15 15 15 15 14 14 14 14
21 20 18 18 17 16 17 17 19 18 18 18 18 19 19 19 19 19 19 19 19 19 18 18 18 17 17 17 17 16 16 16 16 16 15 15 15 15 15 15 15 15 15 15 15 14 14 14 14
Wind_Speed
3 2 2 3 3 3 1 1 1 1 2 3 6 7 7 5 4 6 3 9 12 10 11 13 13 13 13 13 12 12 12 11 11 11 11 10 10 10 9 9 8 7 7 7 6 6 6 6 5
1 2 2 3 3 2 1 1 2 2 5 6 7 7 7 6 6 7 6 11 12 11 11 12 13 13 13 13 12 12 12 11 10 10 10 9 9 9 9 8 7 7 6 6 6 6 6 5 5
2 1 2 2 1 3 2 2 2 2 5 4 5 5 5 5 5 5 9 13 12 10 11 13 14 13 13 12 11 11 11 11 10 9 9 9 9 9 8 7 6 6 5 5 5 5 5 5 5
2 2 3 2 1 3 4 4 3 3 4 5 6 6 4 3 3 8 13 14 13 10 12 14 15 14 13 12 11 11 10 10 9 9 8 8 8 7 7 6 5 5 5 4 4 4 4 5 5
3 3 3 1 1 1 2 3 3 4 3 5 8 6 4 3 10 14 13 14 13 10 11 14 14 13 12 12 11 10 9 9 8 7 7 6 6 5 5 5 4 4 4 4 4 3 4 4 4
3 3 3 0 1 1 1 1 4 7 7 7 8 6 3 5 11 13 13 12 12 11 10 12 14 13 12 11 10 9 8 7 6 5 4 4 4 3 3 2 2 2 2 2 3 3 3 4 4
3 3 1 1 1 1 1 2 4 5 5 5 6 6 4 5 9 11 11 11 10 9 8 8 10 11 11 11 10 8 7 6 5 3 2 1 1 1 0 1 1 2 2 2 3 4 5 5 5
4 4 1 0 2 0 1 2 3 5 4 5 5 7 6 7 9 10 10 9 8 7 6 6 7 8 8 8 8 7 6 5 4 3 2 2 2 2 2 3 3 3 3 3 4 5 6 6 6
3 4 1 2 3 2 1 4 3 4 6 4 4 5 10 13 11 10 9 7 6 7 5 5 5 6 6 6 7 6 5 3 3 3 3 2 2 3 3 4 5 5 4 5 5 6 7 7 6
4 3 4 3 3 4 2 4 4 4 7 6 7 8 12 12 11 10 9 8 7 7 6 5 5 5 6 6 5 4 2 1 2 2 3 2 2 2 1 3 4 5 5 6 7 8 8 7 5
4 5 3 2 3 3 3 3 3 7 5 7 12 13 12 11 10 9 8 8 8 7 7 6 5 5 5 3 3 2 2 1 1 1 1 0 1 1 1 1 3 4 5 5 6 6 6 5 4
3 4 4 3 3 3 3 3 3 4 6 9 13 13 12 12 10 10 9 8 8 7 6 6 6 4 4 3 3 3 2 1 0 1 2 2 1 1 1 1 2 3 3 4 4 3 4 4 3
2 3 3 2 1 3 4 5 4 4 7 10 12 12 11 11 9 8 9 9 8 7 6 6 5 5 4 3 2 3 2 2 1 3 3 3 2 2 1 1 2 3 3 2 2 2 3 3 3
4 3 1 1 1 3 6 3 4 4 9 10 11 10 10 10 10 8 8 8 7 7 6 5 5 4 4 3 3 2 2 3 3 4 4 5 4 3 2 2 2 3 4 3 2 2 2 2 2
3 3 2 1 2 2 6 3 2 6 9 10 9 8 8 8 9 11 10 9 8 7 7 6 6 5 5 4 3 3 3 4 4 4 6 7 6 4 2 2 3 3 4 4 3 3 3 3 3
3 4 1 3 1 2 5 3 3 6 9 9 8 7 7 6 8 8 9 8 8 8 7 6 6 6 5 5 4 3 4 5 4 5 7 7 6 5 3 2 2 3 4 3 2 2 3 3 3
3 2 1 2 1 2 3 3 3 5 9 9 8 7 7 6 6 6 8 8 8 8 8 6 6 6 6 5 4 4 4 4 4 5 5 6 6 6 4 2 2 3 3 3 3 3 2 2 3
2 2 1 2 2 3 4 2 2 4 8 8 7 6 7 6 6 6 7 7 7 7 7 7 6 6 6 5 4 4 4 3 3 3 4 5 5 5 4 2 3 3 3 3 3 2 2 1 2
3 3 2 4 3 4 5 4 3 4 6 7 7 7 6 6 5 5 6 7 7 6 7 7 6 5 5 3 3 3 2 1 2 1 2 3 3 4 3 2 3 3 2 2 2 2 3 2 2
3 3 2 0 2 4 4 2 1 3 5 7 8 8 7 5 4 4 4 5 6 6 7 6 6 5 5 3 3 2 2 1 0 1 2 1 2 2 2 2 2 2 2 3 3 2 2 2 2
2 4 4 4 3 3 4 3 2 1 1 3 5 7 7 8 8 6 5 5 6 7 7 7 7 6 5 4 3 3 3 3 3 2 2 2 1 1 1 1 1 1 1 1 2 1 1 1 2
2 4 5 5 5 0 2 2 3 2 2 3 4 6 7 7 7 6 6 6 6 7 6 7 6 5 4 5 5 4 3 1 2 2 2 3 2 1 0 1 1 1 1 1 1 1 1 1 1
3 4 4 4 4 2 2 3 4 1 3 5 6 7 7 8 8 8 7 7 6 6 6 7 6 5 4 5 5 5 3 2 1 1 1 2 2 2 1 1 1 1 1 1 1 1 1 1 1
5 6 6 5 4 2 1 3 3 3 5 5 5 6 6 7 7 7 5 5 5 5 6 6 6 4 4 4 4 4 4 2 1 1 1 2 2 2 3 2 1 1 1 1 1 0 1 1 1
6 6 4 3 3 2 2 2 4 5 5 6 7 7 6 7 8 7 6 6 5 6 6 6 6 4 4 4 4 4 3 3 2 1 1 1 1 2 3 2 2 1 1 1 1 0 1 0 0
3 6 6 4 3 1 1 1 4 2 3 6 6 7 7 7 7 7 7 7 6 6 6 6 6 4 4 4 3 3 3 2 1 1 1 2 2 3 3 2 2 2 1 1 0 0 1 0 1
5 3 5 5 3 2 0 0 3 3 6 6 7 7 7 6 6 6 5 5 5 6 6 6 6 4 4 4 3 3 2 2 2 1 1 1 1 2 2 2 2 2 2 1 0 0 1 0 0
6 6 5 4 4 2 1 2 4 5 5 6 6 7 6 6 5 5 5 4 4 4 4 4 5 5 4 3 3 2 2 2 2 1 1 1 2 1 1 2 2 2 2 2 1 1 1 0 1
4 4 4 3 4 5 3 4 4 8 8 9 8 7 8 7 6 5 4 3 3 3 3 3 3 3 3 3 2 2 2 2 1 1 1 2 2 2 2 2 2 2 2 2 1 1 1 1 2
5 5 6 5 2 4 4 4 2 8 7 9 8 6 6 6 5 5 4 4 3 3 2 2 2 2 3 3 2 2 2 1 1 1 2 1 2 2 2 1 1 2 1 1 1 1 1 1 2
Wind_Direction
174 128 87 55 53 50 54 284 206 109 76 72 80 86 87 65 84 126 149 135 130 132 128 124 121 117 113 109 106 102 100 97 94 92 89 88 88 87 85 83 80 75 72 68 64 57 53 53 50
150 132 80 54 75 74 338 237 141 126 135 122 91 82 80 72 81 109 127 137 132 130 128 126 122 118 114 110 106 102 99 96 94 93 90 88 87 84 82 79 76 72 66 64 62 53 47 43 37
188 178 101 74 101 160 176 221 169 97 114 115 91 62 74 101 103 120 143 137 130 127 126 127 123 120 116 113 109 106 103 99 95 93 91 89 86 83 79 76 74 71 67 64 58 47 41 35 28
97 51 59 75 181 203 176 197 170 107 83 78 100 71 54 68 109 129 139 134 129 128 130 131 128 124 121 117 114 110 106 101 96 94 92 90 86 81 76 71 68 69 63 57 50 37 28 25 18
78 82 59 47 233 232 203 195 154 110 100 92 98 92 60 43 112 131 138 134 133 136 137 138 133 130 127 123 119 115 111 108 103 100 97 91 85 80 77 74 67 63 54 43 35 17 3 359 356
55 71 82 109 296 297 242 175 86 93 105 107 102 103 94 120 125 137 137 136 138 142 143 143 141 138 135 131 129 127 124 120 116 110 103 97 88 80 76 72 51 40 36 22 8 350 335 329 328
118 97 118 200 67 28 21 77 97 106 105 116 120 103 118 142 142 141 138 137 137 140 140 143 146 146 145 143 143 141 141 141 142 139 132 115 113 116 37 299 305 324 331 335 330 323 320 312 311
136 103 74 115 125 140 318 67 94 99 94 117 115 126 152 168 148 134 130 132 136 138 142 148 151 152 153 158 160 160 160 163 175 196 236 269 267 262 256 256 264 285 305 315 309 307 309 309 309
100 83 161 198 162 184 128 93 67 73 87 64 74 125 151 150 139 126 123 128 140 147 151 152 157 167 173 177 181 180 183 194 221 252 267 291 299 294 273 265 267 279 299 306 303 305 310 313 314
97 131 219 222 187 171 143 109 112 92 84 81 86 103 132 139 141 141 144 148 152 156 167 172 170 177 186 195 187 193 203 222 253 266 280 289 288 288 299 284 284 294 304 308 302 304 310 317 318
147 173 217 230 204 159 118 87 97 120 121 149 143 146 148 146 150 153 156 155 157 158 160 166 171 179 183 190 170 174 177 185 254 314 292 22 9 356 344 336 330 324 319 322 316 316 314 312 306
157 210 205 217 186 134 124 116 93 130 169 164 150 153 156 155 162 162 160 160 153 145 150 156 161 167 176 159 148 152 152 152 109 20 63 88 68 42 6 357 327 332 326 322 323 318 318 321 315
174 225 237 219 134 130 117 116 120 140 150 149 147 152 161 164 164 164 162 157 146 146 148 150 147 143 142 127 134 124 136 139 111 57 53 75 81 52 39 22 11 352 343 331 323 326 333 337 343
183 168 183 177 193 127 119 119 111 164 151 150 151 160 170 170 163 157 156 153 152 152 151 144 130 132 123 118 124 126 121 107 82 69 70 76 78 73 54 26 10 359 360 356 346 335 340 332 348
137 106 32 284 187 169 113 80 160 167 145 147 152 159 165 166 159 161 167 163 157 150 143 139 139 125 113 109 109 101 94 94 83 76 71 70 75 76 70 28 4 350 1 11 19 12 14 2 2
93 87 60 293 152 154 120 165 198 157 140 149 154 156 158 162 164 168 168 162 158 148 144 147 140 123 112 103 97 98 93 91 84 79 69 67 68 69 62 30 358 355 16 19 7 14 17 5 1
46 116 198 288 207 143 124 175 196 162 147 153 160 164 159 154 155 165 167 162 158 152 146 141 131 123 113 99 90 84 80 78 86 82 72 65 59 57 62 37 352 8 21 11 4 22 31 1 350
199 160 170 221 235 128 130 159 169 152 146 154 161 164 161 160 166 165 159 157 153 146 139 133 127 118 107 92 77 59 56 56 70 78 80 74 63 56 56 39 8 19 24 9 9 8 12 356 346
157 146 182 237 211 130 141 153 169 151 145 155 166 169 171 178 171 154 149 147 143 142 139 138 134 131 118 104 100 88 72 53 45 41 81 86 70 53 57 32 8 12 17 358 1 18 22 5 12
147 140 184 285 116 124 116 96 193 162 173 175 179 178 175 170 153 158 152 146 147 150 147 142 142 143 137 133 137 139 138 129 99 359 31 59 60 32 53 49 21 8 13 10 14 36 32 358 29
175 169 171 148 83 68 91 26 339 251 189 183 179 176 174 173 173 175 165 160 150 152 157 154 153 150 143 130 103 77 57 37 20 4 336 312 322 358 42 45 32 19 39 356 347 43 85 19 359
187 189 158 138 120 102 113 155 286 235 200 197 191 179 182 179 172 171 167 164 164 165 158 147 148 146 144 131 124 125 126 154 237 247 273 301 306 291 334 1 22 20 9 328 320 74 118 112 17
166 147 125 121 116 77 49 114 288 243 195 213 202 189 186 177 169 167 166 167 163 155 149 146 141 143 144 136 138 133 138 190 245 285 308 320 320 296 284 313 6 3 332 315 333 25 81 123 141
121 88 65 56 73 65 240 134 263 230 207 196 192 185 180 174 164 157 149 136 131 132 135 135 138 145 146 138 142 148 160 172 170 318 316 316 312 313 307 297 309 319 321 301 291 322 59 118 140
90 91 65 31 29 254 219 122 247 242 199 174 173 176 169 161 151 145 142 141 142 140 140 139 144 150 151 139 143 156 165 166 182 223 241 270 293 293 293 299 290 292 278 272 278 355 337 357 165
138 131 147 162 178 249 25 178 260 252 148 141 143 142 140 143 150 157 163 160 157 155 149 145 152 159 166 158 161 175 170 163 188 205 205 232 244 260 276 282 282 281 287 311 351 42 303 177 213
131 156 166 134 128 105 180 145 350 59 97 114 124 124 136 141 146 151 153 159 165 164 164 161 158 161 174 180 176 182 183 179 197 211 213 252 271 282 290 289 305 311 317 325 12 342 292 299 257
150 151 109 119 139 133 138 203 199 180 153 136 137 143 148 144 141 143 146 155 160 165 163 156 159 174 179 174 178 177 192 194 190 170 236 286 296 306 306 320 320 326 332 331 4 338 303 316 290
161 142 133 126 149 143 164 258 220 184 172 155 155 155 154 151 149 148 149 154 144 131 141 152 167 172 183 184 180 158 184 195 173 169 247 272 302 307 293 292 310 324 322 324 346 316 328 339 324
161 170 149 145 160 137 142 259 285 161 153 147 145 146 147 145 144 138 132 120 116 122 124 139 164 179 191 182 165 169 180 182 188 229 258 283 308 303 288 290 305 309 311 320 324 298 303 292 305
Height
1509 1508 1509 1510 1511 1517 1518 1512 1506 1504 1504 1504 1503 1504 1507 1511 1514 1521 1519 1519 1520 1521 1522 1523 1524 1524 1525 1525 1526 1526 1526 1526 1526 1527 1527 1527 1527 1526 1526 1527 1527 1527 1527 1527 1527 1527 1527 1526 1526
1509 1509 1510 1510 1516 1525 1520 1509 1506 1503 1503 1504 1505 1507 1509 1512 1514 1516 1517 1520 1521 1522 1523 1524 1525 1525 1526 1526 1526 1526 1526 1527 1527 1527 1527 1527 1527 1526 1526 1526 1526 1526 1527 1527 1527 1526 1526 1526 1526
1509 1509 1510 1511 1517 1522 1517 1508 1505 1503 1503 1503 1507 1509 1511 1514 1516 1517 1519 1521 1522 1523 1524 1525 1526 1526 1527 1527 1527 1527 1527 1527 1527 1527 1527 1527 1527 1527 1526 1526 1526 1526 1526 1526 1527 1526 1526 1526 1526
1509 1510 1511 1514 1516 1512 1508 1505 1503 1503 1504 1504 1506 1511 1514 1516 1516 1518 1520 1522 1523 1524 1526 1527 1527 1527 1528 1528 1528 1528 1528 1528 1528 1528 1527 1527 1527 1527 1527 1526 1526 1526 1526 1526 1526 1526 1526 1526 1525
1509 1509 1513 1517 1514 1508 1504 1503 1502 1502 1504 1506 1507 1513 1516 1518 1517 1519 1521 1523 1524 1525 1527 1527 1528 1528 1528 1528 1528 1528 1528 1528 1528 1528 1528 1528 1528 1527 1527 1526 1526 1526 1526 1525 1525 1525 1525 1525 1525
1509 1510 1519 1521 1514 1508 1504 1503 1503 1504 1507 1509 1510 1513 1518 1519 1520 1521 1523 1524 1525 1526 1527 1528 1529 1529 1529 1529 1529 1529 1529 1529 1529 1529 1529 1528 1528 1528 1527 1527 1526 1526 1525 1525 1524 1524 1524 1524 1524
1509 1512 1517 1517 1515 1510 1506 1504 1504 1506 1507 1509 1510 1514 1519 1521 1521 1522 1524 1525 1527 1527 1528 1529 1530 1530 1530 1530 1530 1530 1530 1530 1530 1530 1529 1529 1528 1528 1527 1527 1526 1526 1525 1524 1524 1524 1523 1523 1523
1508 1512 1516 1516 1515 1512 1506 1504 1506 1506 1508 1510 1511 1513 1517 1520 1522 1523 1525 1527 1528 1529 1529 1530 1530 1531 1531 1531 1531 1531 1531 1531 1531 1530 1530 1529 1529 1528 1528 1527 1526 1525 1525 1524 1524 1523 1523 1523 1523
1508 1515 1520 1515 1513 1511 1506 1506 1507 1508 1509 1510 1511 1512 1515 1520 1523 1525 1526 1528 1529 1529 1530 1531 1531 1532 1532 1532 1532 1532 1532 1532 1531 1531 1530 1530 1529 1528 1528 1527 1526 1526 1525 1524 1524 1523 1523 1522 1522
1508 1517 1514 1508 1507 1507 1506 1506 1508 1510 1510 1512 1513 1515 1518 1521 1523 1525 1526 1528 1529 1530 1531 1532 1532 1532 1533 1533 1533 1533 1533 1532 1532 1531 1531 1530 1529 1528 1528 1527 1526 1526 1525 1524 1523 1523 1522 1522 1522
1507 1511 1508 1506 1505 1505 1506 1507 1508 1510 1513 1513 1513 1516 1519 1521 1524 1526 1527 1529 1530 1531 1531 1532 1532 1533 1533 1533 1533 1533 1533 1533 1532 1532 1531 1530 1529 1528 1528 1527 1526 1525 1525 1524 1523 1522 1522 1522 1521
1506 1506 1506 1505 1505 1505 1506 1507 1509 1509 1511 1513 1514 1516 1519 1522 1524 1526 1528 1529 1531 1531 1532 1532 1533 1533 1534 1534 1534 1534 1533 1533 1532 1531 1531 1530 1529 1528 1527 1527 1526 1525 1524 1523 1523 1522 1522 1521 1521
1505 1505 1504 1505 1505 1505 1506 1508 1510 1511 1512 1514 1516 1518 1520 1522 1524 1526 1528 1530 1531 1532 1532 1533 1534 1534 1534 1534 1534 1534 1534 1533 1532 1532 1531 1530 1529 1528 1527 1526 1526 1525 1524 1523 1522 1522 1521 1521 1520
1504 1504 1504 1505 1505 1506 1507 1509 1510 1512 1513 1515 1517 1518 1520 1522 1524 1526 1528 1530 1531 1532 1533 1534 1534 1535 1534 1534 1534 1534 1534 1533 1532 1532 1531 1530 1529 1528 1527 1526 1525 1524 1523 1523 1522 1521 1520 1520 1520
1503 1505 1506 1506 1505 1507 1508 1513 1512 1512 1513 1515 1517 1519 1521 1523 1525 1527 1528 1529 1531 1532 1533 1534 1534 1535 1535 1535 1534 1534 1534 1533 1533 1532 1531 1530 1529 1528 1527 1526 1525 1524 1523 1522 1521 1521 1520 1519 1519
1503 1510 1515 1508 1505 1507 1511 1519 1512 1513 1514 1516 1517 1519 1521 1524 1525 1527 1528 1529 1531 1532 1533 1533 1534 1535 1535 1535 1535 1535 1534 1533 1533 1532 1531 1530 1529 1527 1526 1525 1524 1523 1522 1521 1520 1520 1519 1519 1518
1511 1518 1517 1512 1506 1507 1511 1516 1513 1513 1513 1516 1518 1519 1521 1523 1525 1527 1528 1530 1531 1532 1533 1533 1534 1534 1535 1535 1535 1535 1534 1533 1533 1532 1531 1530 1529 1527 1526 1525 1524 1523 1522 1521 1520 1519 1519 1518 1518
1517 1517 1516 1514 1509 1508 1512 1515 1513 1513 1514 1516 1518 1519 1521 1523 1525 1527 1528 1530 1531 1532 1533 1533 1534 1534 1534 1535 1535 1535 1534 1534 1533 1532 1531 1530 1529 1527 1526 1525 1523 1522 1521 1520 1520 1519 1518 1518 1518
1509 1513 1516 1512 1507 1510 1514 1515 1514 1514 1515 1516 1518 1519 1521 1523 1525 1527 1528 1529 1531 1532 1533 1533 1534 1534 1534 1535 1535 1535 1534 1534 1533 1532 1531 1530 1529 1528 1526 1525 1523 1522 1521 1520 1520 1519 1518 1518 1517
1508 1514 1515 1511 1507 1511 1516 1517 1514 1514 1515 1516 1517 1518 1520 1523 1525 1526 1528 1529 1530 1531 1532 1533 1534 1534 1535 1535 1535 1535 1534 1534 1533 1532 1532 1530 1529 1528 1526 1525 1523 1522 1521 1520 1520 1519 1518 1518 1517
1509 1512 1513 1513 1511 1511 1516 1522 1519 1516 1515 1516 1517 1518 1519 1521 1523 1525 1527 1528 1529 1531 1532 1533 1534 1535 1535 1535 1535 1535 1534 1534 1533 1533 1532 1531 1529 1528 1527 1525 1524 1522 1522 1521 1520 1519 1518 1518 1518
1511 1505 1507 1510 1519 1525 1522 1536 1524 1518 1517 1516 1517 1518 1519 1520 1522 1524 1525 1527 1529 1530 1532 1533 1534 1535 1535 1535 1535 1535 1534 1534 1533 1533 1532 1531 1529 1528 1527 1525 1524 1523 1522 1521 1520 1519 1519 1518 1518
1506 1503 1507 1511 1519 1526 1526 1533 1529 1519 1520 1517 1516 1516 1518 1519 1521 1523 1525 1526 1528 1530 1531 1533 1534 1534 1535 1535 1535 1535 1534 1534 1533 1533 1532 1531 1530 1528 1527 1526 1524 1523 1522 1521 1520 1519 1519 1518 1518
1501 1507 1512 1518 1525 1536 1529 1534 1533 1523 1517 1515 1515 1515 1516 1518 1521 1523 1525 1526 1528 1530 1531 1532 1533 1534 1534 1535 1535 1534 1534 1534 1533 1533 1532 1531 1530 1528 1527 1526 1525 1524 1522 1521 1520 1520 1519 1518 1518
1505 1518 1533 1537 1542 1540 1526 1530 1529 1514 1510 1511 1512 1514 1516 1518 1520 1522 1524 1526 1527 1529 1530 1532 1533 1533 1534 1534 1534 1534 1534 1533 1533 1532 1531 1531 1530 1528 1527 1526 1525 1524 1523 1522 1521 1520 1519 1518 1518
1508 1516 1533 1543 1544 1539 1528 1531 1521 1509 1508 1509 1511 1514 1516 1518 1520 1522 1524 1525 1527 1529 1530 1531 1532 1533 1533 1534 1534 1534 1534 1533 1533 1532 1531 1530 1529 1528 1527 1526 1525 1524 1523 1522 1521 1520 1519 1518 1518
1509 1516 1516 1527 1531 1538 1534 1525 1517 1510 1510 1511 1513 1515 1517 1519 1521 1522 1524 1526 1527 1528 1530 1531 1531 1532 1533 1533 1533 1534 1533 1533 1532 1532 1531 1530 1529 1528 1527 1526 1525 1524 1523 1522 1521 1520 1519 1518 1518
1501 1507 1519 1527 1537 1543 1535 1530 1529 1518 1515 1514 1514 1516 1518 1520 1521 1523 1524 1526 1527 1528 1529 1530 1531 1532 1532 1532 1533 1533 1533 1532 1532 1531 1531 1530 1529 1528 1527 1526 1525 1524 1523 1522 1521 1520 1519 1518 1517
1503 1507 1513 1523 1527 1540 1544 1537 1513 1514 1512 1513 1515 1516 1518 1520 1521 1523 1525 1526 1527 1528 1529 1530 1530 1531 1531 1532 1532 1532 1532 1532 1531 1531 1530 1529 1528 1528 1527 1526 1525 1524 1523 1521 1520 1519 1518 1518 1517
1494 1499 1508 1522 1527 1530 1536 1534 1507 1509 1510 1512 1515 1517 1519 1520 1522 1523 1525 1526 1527 1528 1528 1529 1529 1530 1530 1531 1531 1531 1531 1531 1530 1530 1529 1528 1528 1527 1526 1525 1524 1523 1522 1521 1520 1519 1518 1517 1516